Date String (YYYY-MM-DD hh:mm:ss) UTC,Instrument flags,Ambient pressure (hPa),Sample flow (lpm),Bypass flow (lpm),Sample temperature (°C),Ambient temperature (°C),ASC tube jacket temperature (°C),LED temperature (°C),Box temperature (°C),Sample RH (%),Span deviation,Mass concentration (μg/m³),Mass concentration (μg/m³),Mass concentration (μg/m³)
DateTimeUTC,F1_M11,P_M11,Q1_M11,Q2_M11,T1_M11,T2_M11,T3_M11,T4_M11,T5_M11,U1_M11,ZSPAN_M11,X0_M11,X2_M11,X1_M11
2022-12-14 21:00:00,,0815.7,4.96,0.00,21.9,21.4,00.0,30.6,23.8,09.5,0000.0,0010.23,0004.20,0003.57
2022-12-14 21:01:00,,0815.7,5.03,0.00,22.0,22.3,00.0,30.7,24.0,09.0,0000.0,0010.41,0004.11,0003.54
2022-12-14 21:02:00,,0815.8,4.98,0.00,22.0,22.1,00.0,30.7,24.0,08.4,0000.0,0009.77,0004.03,0003.48
2022-12-14 21:03:00,,0815.8,5.01,0.00,22.1,21.7,00.0,30.8,24.0,08.6,0000.0,0009.27,0003.96,0003.43
2022-12-14 21:04:00,,0815.8,5.01,0.00,22.1,21.5,00.0,30.8,24.0,08.8,0000.0,0009.40,0003.94,0003.41
2022-12-14 21:05:00,,0815.8,4.99,0.00,22.1,21.4,00.0,30.8,24.0,09.0,0000.0,0010.60,0003.92,0003.37
2022-12-14 21:06:00,,0815.8,4.98,0.00,22.1,21.3,00.0,30.8,24.0,09.0,0000.0,0010.98,0003.87,0003.34
2022-12-14 21:07:00,,0815.8,5.00,0.00,22.1,21.2,00.0,30.8,24.0,08.6,0000.0,0011.09,0003.84,0003.30
2022-12-14 21:08:00,,0815.8,5.00,0.00,22.2,21.2,00.0,30.8,24.0,08.5,0000.0,0010.73,0003.78,0003.26
2022-12-14 21:09:00,,0815.8,5.00,0.00,22.2,21.2,00.0,30.9,24.0,08.2,0000.0,0010.46,0003.65,0003.19
2022-12-14 21:10:00,,0815.8,5.00,0.00,22.2,21.3,00.0,30.9,24.1,07.9,0000.0,0010.42,0003.55,0003.11
2022-12-14 21:11:00,,0815.8,5.01,0.00,22.2,21.3,00.0,30.9,24.1,07.9,0000.0,0010.70,0003.45,0002.99
2022-12-14 21:12:00,,0815.8,5.00,0.00,22.3,21.3,00.0,30.9,24.2,08.0,0000.0,0011.02,0003.46,0002.90
2022-12-14 21:13:00,,0815.8,5.01,0.00,22.3,21.3,00.0,31.0,24.2,07.5,0000.0,0010.91,0003.41,0002.83
2022-12-14 21:14:00,,0815.8,5.00,0.00,22.3,21.3,00.0,31.0,24.2,07.4,0000.0,0010.77,0003.36,0002.74
2022-12-14 21:15:00,,0815.8,4.97,0.00,22.3,21.4,00.0,31.0,24.2,07.4,0000.0,0010.63,0003.29,0002.63
2022-12-14 21:16:00,,0815.8,5.00,0.00,22.3,21.5,00.0,31.0,24.3,07.4,0000.0,0009.54,0003.22,0002.52
2022-12-14 21:17:00,,0815.8,5.03,0.00,22.4,21.5,00.0,31.1,24.3,07.4,0000.0,0008.78,0003.13,0002.40
2022-12-14 21:18:00,,0815.9,4.96,0.00,22.4,21.4,00.0,31.1,24.3,07.5,0000.0,0008.35,0003.02,0002.28
2022-12-14 21:19:00,,0815.9,5.04,0.00,22.4,21.4,00.0,31.1,24.3,07.6,0000.0,0007.88,0002.91,0002.20
2022-12-14 21:20:00,,0815.8,4.96,0.00,22.4,21.4,00.0,31.1,24.4,07.5,0000.0,0007.88,0002.89,0002.15
2022-12-14 21:21:00,,0815.9,5.05,0.00,22.4,21.4,00.0,31.2,24.4,07.5,0000.0,0007.75,0002.81,0002.12
2022-12-14 21:22:00,,0815.9,4.95,0.00,22.5,21.4,00.0,31.2,24.4,07.5,0000.0,0007.28,0002.83,0002.11
2022-12-14 21:23:00,,0815.9,5.01,0.00,22.5,21.4,00.0,31.2,24.4,07.5,0000.0,0005.86,0002.70,0002.06
2022-12-14 21:24:00,,0815.9,5.01,0.00,22.5,21.4,00.0,31.2,24.4,08.3,0000.0,0005.87,0002.82,0002.10
2022-12-14 21:25:00,,0815.9,4.99,0.00,22.5,21.4,00.0,31.2,24.4,08.8,0000.0,0006.57,0003.05,0002.26
2022-12-14 21:26:00,,0815.9,5.04,0.00,22.5,21.4,00.0,31.2,24.4,08.7,0000.0,0007.38,0003.19,0002.39
2022-12-14 21:27:00,,0815.9,4.95,0.00,22.5,21.4,00.0,31.3,24.4,08.6,0000.0,0007.53,0003.27,0002.48
2022-12-14 21:28:00,,0815.9,5.06,0.00,22.5,21.4,00.0,31.3,24.4,08.6,0000.0,0007.69,0003.33,0002.56
2022-12-14 21:29:00,,0815.9,4.96,0.00,22.5,21.4,00.0,31.3,24.4,08.7,0000.0,0007.30,0003.41,0002.66
2022-12-14 21:30:00,,0815.9,5.04,0.00,22.5,21.4,00.0,31.3,24.4,08.8,0000.0,0007.49,0003.50,0002.77
2022-12-14 21:31:00,,0815.9,4.96,0.00,22.5,21.4,00.0,31.3,24.4,08.6,0000.0,0007.82,0003.61,0002.86
2022-12-14 21:32:00,,0815.9,5.00,0.00,22.5,21.3,00.0,31.3,24.4,08.6,0000.0,0008.00,0003.68,0002.94
2022-12-14 21:33:00,,0815.9,5.01,0.00,22.5,21.3,00.0,31.3,24.4,08.7,0000.0,0008.00,0003.75,0003.03
2022-12-14 21:34:00,,0816.0,4.98,0.00,22.5,21.2,00.0,31.3,24.3,08.5,0000.0,0008.64,0003.82,0003.14
2022-12-14 21:35:00,,0816.0,5.05,0.00,22.5,21.2,00.0,31.3,24.3,08.4,0000.0,0009.09,0003.86,0003.18
2022-12-14 21:36:00,,0816.0,4.95,0.00,22.5,21.1,00.0,31.3,24.3,08.2,0000.0,0008.98,0003.80,0003.16
2022-12-14 21:37:00,,0816.1,5.05,0.00,22.5,21.1,00.0,31.3,24.3,07.9,0000.0,0009.25,0003.72,0003.11
2022-12-14 21:38:00,,0816.0,4.95,0.00,22.5,21.1,00.0,31.3,24.3,07.6,0000.0,0009.97,0003.65,0003.02
2022-12-14 21:39:00,,0816.0,5.04,0.00,22.5,21.0,00.0,31.3,24.3,07.6,0000.0,0009.80,0003.59,0002.96
2022-12-14 21:40:00,,0816.0,4.95,0.00,22.5,21.0,00.0,31.3,24.3,07.6,0000.0,0009.77,0003.54,0002.89
2022-12-14 21:41:00,,0816.0,5.02,0.00,22.5,21.0,00.0,31.3,24.3,07.6,0000.0,0009.66,0003.47,0002.81
2022-12-14 21:42:00,,0816.0,4.99,0.00,22.5,21.0,00.0,31.3,24.3,07.8,0000.0,0009.41,0003.40,0002.76
2022-12-14 21:43:00,,0816.0,4.99,0.00,22.4,21.0,00.0,31.3,24.3,07.8,0000.0,0009.28,0003.34,0002.71
2022-12-14 21:44:00,,0816.1,5.03,0.00,22.4,21.0,00.0,31.3,24.2,08.1,0000.0,0009.17,0003.31,0002.70
2022-12-14 21:45:00,,0816.0,4.97,0.00,22.4,20.9,00.0,31.3,24.2,08.0,0000.0,0008.30,0003.25,0002.66
2022-12-14 21:46:00,,0816.0,5.04,0.00,22.4,20.9,00.0,31.3,24.2,08.1,0000.0,0007.77,0003.20,0002.64
2022-12-14 21:47:00,,0816.1,4.95,0.00,22.4,20.8,00.0,31.3,24.2,08.1,0000.0,0007.67,0003.19,0002.63
2022-12-14 21:48:00,,0816.0,5.05,0.00,22.4,20.8,00.0,31.3,24.1,08.2,0000.0,0006.64,0003.22,0002.67
2022-12-14 21:49:00,,0816.0,4.95,0.00,22.4,20.7,00.0,31.3,24.1,08.1,0000.0,0005.30,0003.27,0002.74
2022-12-14 21:50:00,,0816.0,5.05,0.00,22.3,20.7,00.0,31.3,24.1,08.0,0000.0,0005.33,0003.29,0002.79
2022-12-14 21:51:00,,0816.1,4.96,0.00,22.3,20.7,00.0,31.2,24.1,08.0,0000.0,0005.43,0003.30,0002.83
2022-12-14 21:52:00,,0816.0,5.02,0.00,22.3,20.7,00.0,31.2,24.1,08.0,0000.0,0005.65,0003.31,0002.87
2022-12-14 21:53:00,,0816.0,4.99,0.00,22.3,20.7,00.0,31.2,24.1,08.0,0000.0,0005.69,0003.33,0002.89
2022-12-14 21:54:00,,0816.1,4.98,0.00,22.3,20.7,00.0,31.2,24.1,07.9,0000.0,0005.66,0003.35,0002.88
2022-12-14 21:55:00,,0816.1,5.04,0.00,22.3,20.7,00.0,31.2,24.1,07.8,0000.0,0005.67,0003.33,0002.82
2022-12-14 21:56:00,,0816.1,4.96,0.00,22.3,20.8,00.0,31.2,24.1,08.0,0000.0,0005.70,0003.32,0002.78
2022-12-14 21:57:00,,0816.2,5.05,0.00,22.3,20.8,00.0,31.2,24.1,08.0,0000.0,0006.52,0003.30,0002.75
2022-12-14 21:58:00,,0816.2,4.96,0.00,22.3,20.9,00.0,31.2,24.2,07.9,0000.0,0006.73,0003.29,0002.72
2022-12-14 21:59:00,,0816.2,5.05,0.00,22.3,21.0,00.0,31.2,24.2,07.7,0000.0,0006.38,0003.22,0002.64
